Skip Page Navigation
NASA JPL Caltech
NASA Logo - Jet Propulsion Laboratory + View the NASA Portal
+ Near-Earth Object (NEO) Program
Search JPL
JPL Home Earth Solar System Stars & Galaxies Technology
JPL Solar System Dynamics
BODIES ORBITS EPHEMERIDES TOOLS PHYSICAL DATA DISCOVERY FAQ SITE MAP
JPL Small-Body Database Browser
Search: [ help ]  
386 Siegena (1894 AY)
Classification: Main-belt Asteroid          SPK-ID: 2000386
Ephemeris | Orbit Diagram | Orbital Elements | Physical Parameters | Discovery Circumstances ]

[ show orbit diagram ]
Orbital Elements at Epoch 2456400.5 (2013-Apr-18.0) TDB
Reference: JPL 60 (heliocentric ecliptic J2000)
 Element Value Uncertainty (1-sigma)   Units 
e .1714595254136846 3.9092e-08  
a 2.89600329180672 8.4589e-09 AU
q 2.399455941797072 1.1332e-07 AU
i 20.25645059765999 4.062e-06 deg
node 166.9094810846756 1.6849e-05 deg
peri 219.5057183837949 2.3332e-05 deg
M 186.7946259023751 1.818e-05 deg
tp 2457266.575724399358
(2015-Sep-01.07572440)
9.1798e-05 JED
period 1800.101540775716
4.93
7.8868e-06
2.159e-08
d
yr
n .1999887183280036 8.7622e-10 deg/d
Q 3.392550641816368 9.9093e-09 AU
  Orbit Determination Parameters
   # obs. used (total)      1834  
   data-arc span      43511 days (119.13 yr)  
   first obs. used      1894-03-05  
   last obs. used      2013-04-21  
   planetary ephem.      DE405  
   SB-pert. ephem.      SB405-CPV-2  
   condition code      0  
   fit RMS      .5126  
   data source      ORB  
   producer      Otto Matic  
   solution date      2013-Apr-29 12:34:54  

Additional Information
 Earth MOID = 1.42849 AU 
 T_jup = 3.176 
[ show covariance matrix ]

Ephemeris | Orbit Diagram | Orbital Elements | Physical Parameters | Discovery Circumstances ]

Physical Parameter Table
Parameter Symbol Value Units Sigma Reference Notes
absolute magnitude H 7.43 mag n/a IRAS-A-FPA-3-RDR-IMPS-V6.0 IRAS observations used: 19
magnitude slope G 0.16   n/a PDS3 (MPC 17258) Fit
diameter diameter 165.01 km 2.7 IRAS-A-FPA-3-RDR-IMPS-V6.0 IRAS observations used: 19
rotation period rot_per 9.763 h n/a Asteroid Lightcurve DataBase (Rev. 2013-May-01) Published Reference List:
[Zappala, V.; Scaltriti, F.; Lagerkvist, C.-I.; Rickman, H.; Harris, A.W. (1982) Icarus 52, 196-201.]
[Behrend, R. (2004) Observatoire de Geneve web site, http://obswww.unige.ch/~behrend/page_cou.html]
[Stephens, R.D. (2007) Minor Planet Bul. 34, 64-65.]
[Behrend, R. (2012) Observatoire de Geneve web site, http://obswww.unige.ch/~behrend/page_cou.html]
geometric albedo albedo 0.0692   0.002 IRAS-A-FPA-3-RDR-IMPS-V6.0 IRAS observations used: 19
B-V BV .723 mag .011 EAR-A-5-DDR-UBV-MEAN-VALUES-V1.1 #obs=5; phase (min.=3.84, mean=16.39, max.=21.64) deg.
U-B UB .407 mag .040 EAR-A-5-DDR-UBV-MEAN-VALUES-V1.1 #obs=5; phase (min.=3.84, mean=16.39, max.=21.64) deg.
Tholen spectral type spec_T C   n/a EAR-A-5-DDR-TAXONOMY-V4.0 used 7 color indices; used ground-based radiometric albedo
SMASSII spectral type spec_B C   n/a EAR-A-5-DDR-TAXONOMY-V4.0 based on a high-resolution spectrum by Xu et al. (1995) or Bus and Binzel (2002)

386 Siegena (1894 AY)          Discovered 1894-Mar-01 by Wolf, M. at Heidelberg (024)
Reference: DISCOVERY.DBLast Updated: 2003-08-29

Alternate Designations
 1894 AY = 1948 EW 
Ephemeris | Orbit Diagram | Orbital Elements | Physical Parameters | Discovery Circumstances ]
ABOUT SSD CREDITS/AWARDS PRIVACY/COPYRIGHT GLOSSARY LINKS
FirstGov 2013-May-20 12:49 UT
(server date/time)  
NASA Home Page
Site Manager:   Donald K. Yeomans
Webmaster  Alan B. Chamberlin